Location: Berua Church
(35.0423°N, 88.5987°W)
Time: 03:04:03
(UTC+00:00)

Cosmos 1346 Rocket - Pass Details

Date: 08 December 2019
Orbit: 524 x 555 km, 81.2° (Epoch: 19 January)

Event Time Altitude Azimuth Distance (km) Brightness Sun altitude
Rises 12:18:53 0° 209° (SSW) 2,643 6.2 -6.6°
Reaches altitude 10° 12:21:12 10° 220° (SW) 1,757 5.2 -6.1°
Maximum altitude 12:24:39 30° 283° (WNW) 948 3.5 -5.5°
Drops below altitude 10° 12:28:07 10° 346° (NNW) 1,769 5.1 -4.8°
Sets 12:30:27 0° 357° (N) 2,664 6.0 -4.4°
